Погода в Соловецком

Россия / Костромская область     59°03′39″N   47°16′56″E
темп.,
°C
ветер,
м/с
пор.,
м/с
влажн.,
%
обл.,
%
осадки,
мм/ч
давл.,
гПа
погр.,
м
20 июня, вс
вс2000:00+19ссз2579100 0.0 1018106
03:00+16с28925 0.0 1020190
06:00+19всв23663 0.0 1021268
09:00+23св11440 0.0 1021871
12:00+27зсз12401 0.0 10211523
15:00+27ююз2442100 0.0 10201781
18:00+23ююв246582 0.0 101989
21:00+21ююв3107264 0.0 1019297
21 июня, пн
пн2100:00+17ю229426 0.0 101927
03:00+17з229151 0.0 101935
06:00+21зюз25755 0.0 1019176
09:00+27зюз45537 0.0 1019774
12:00+30з4641100 0.0 10182257
15:00+31з4636100 0.0 10182650
18:00+27з2558100 0.0 1017124
21:00+22з227356 0.0 101819
22 июня, вт
вт2200:00+21з227034 0.0 101954
03:00+19з237655 0.0 102045
06:00+23з25671 0.0 1020157
09:00+29з34495 0.0 1020726
12:00+32з343535 0.0 10192985
15:00+29юз354991 0.0 1019504
18:00+22с3770100 0.3 1019131
21:00+19зюз228793 0.6 101932
23 июня, ср
ср2300:00+19з23866 0.0 101958
03:00+17ссз23954 0.5 102065
06:00+22з23812 0.0 1019129
09:00+27зсз34525 0.0 1019770
12:00+31сз34403 0.0 10192045
15:00+31зсз3336100 0.0 10182488
18:00+28в005814 0.0 101713
21:00+22з366915 0.0 1017141
24 июня, чт
чт2400:00+18в11882 0.0 101815
03:00+17з239056 0.0 101951
06:00+22з227098 0.0 1018152
09:00+27з235476 0.0 1018634
12:00+31зюз33457 0.0 10181335
15:00+33зюз353658 0.0 10162796
18:00+18ююв1395100 13.3 101889
21:00+20з248969 17.8 101760